Regional Weather Roundup
Issued by NWS

Home | Current Version | Previous Version | Graphics & Text | Print | Product List | Glossary On
Versions: 1 2 3 4 5 6 7 8 9 10 11 12 13 14 15 16 17 18 19 20 21 22 23 24 25 26 27
000
ASUS45 KCYS 192210
RWRWY

WYOMING REGIONAL WEATHER ROUNDUP
NATIONAL WEATHER SERVICE CHEYENNE WY
400 PM MDT THU OCT 19 2017

NOTE:  "FAIR" INDICATES FEW OR NO CLOUDS BELOW 12,000 FEET
WITH NO SIGNIFICANT WEATHER AND/OR OBSTRUCTIONS TO VISIBILITY.

WYZ001-192300-
YELLOWSTONE NATIONAL PARK

CITY           SKY/WX    TMP DP  RH WIND       PRES   REMARKS
LK YELLOWSTONE   N/A     58  11  15 W8        30.00F
W YELLOWSTONE  NOT AVBL

$$
WYZ002>013-054>058-071-098>099-192300-
NORTHERN WYOMING

CITY           SKY/WX    TMP DP  RH WIND       PRES   REMARKS
JACKSON        FAIR      67  13  12 SW16G24   29.93F
CODY           FAIR      72  22  15 SE9       29.80F
GREYBULL       FAIR      74  22  14 SE7       29.75F
WORLAND        FAIR      76  16  10 S12       29.76F
SHERIDAN       FAIR      81  27  14 E6        29.71F
BUFFALO        FAIR      79  19  10 N10       29.76F
GILLETTE       FAIR      77  17  10 S16       29.76F
HULETT         FAIR      79  21  11 S12       29.80F
NEWCASTLE      FAIR      77  16  10 S12       29.83F

$$
WYZ014>020-022>026-101>103-192300-
CENTRAL WYOMING

CITY           SKY/WX    TMP DP  RH WIND       PRES   REMARKS
BIG PINEY      FAIR      65  12  12 VRB3      29.99F
PINEDALE       FAIR      63  12  14 S8        30.00F
DUBOIS         FAIR      63   9  12 NW12G25   29.94F
LANDER         FAIR      69  23  17 CALM      29.87F
RIVERTON       FAIR      67  19  16 E3        29.88F
CASPER         FAIR      71  16  12 SW20      29.88F
DOUGLAS        FAIR      74  17  11 SW15      29.88F

$$
WYZ021-027>030-104>119-192300-
SOUTHERN WYOMING

CITY           SKY/WX    TMP DP  RH WIND       PRES   REMARKS
EVANSTON       PTSUNNY   68  15  13 SW18      29.99F
KEMMERER       FAIR      64   9  11 SW14G25   30.01S
FORT BRIDGER   FAIR      67  14  13 SE7       30.02F
ROCK SPRINGS   FAIR      66   5   9 W9        29.99F
DIXON          FAIR      70  22  16 W14G20    30.04F
RAWLINS        FAIR      67  12  12 SW18G25   30.01F
SARATOGA       FAIR      68  21  17 SW14G23   30.04S
LARAMIE        PTSUNNY   68  19  15 SW12G20   30.03F
CHEYENNE       FAIR      70  21  15 S10       29.97F
TORRINGTON     FAIR      81  19  10 SE10      29.84F
PINE BLUFFS    FAIR      72  23  16 S10       29.94F

$$




USA.gov is the U.S. government's official web portal to all federal, state and local government web resources and services.